Weather History for Beaver Island, MI

Change the Weather History Date:

Thursday, July 4, 2013

  Actual Average Record
Temperature  
Mean Temperature 62 °F -  
Max Temperature 71 °F 74 °F 89 °F (2012)
Min Temperature 54 °F 54 °F 40 °F (2014)
Degree Days  
Heating Degree Days 2    
Growing Degree Days 12 (Base 50)    
Moisture  
Dew Point 56 °F    
Average Humidity 80    
Maximum Humidity 97    
Minimum Humidity 65    
Precipitation  
Precipitation 0.00 in - - ()
Sea Level Pressure  
Sea Level Pressure 30.05 in    
Wind  
Wind Speed 6 mph (SSW)    
Max Wind Speed 14 mph    
Max Gust Speed 21 mph    
Visibility 9 miles    
Events      
Averages and records for this station are not official NWS values.
T = Trace of Precipitation, MM = Missing Value Source: NWS Daily Summary

Daily Weather History Graph

Daily Weather History Graph

Search for Another Location

Airport:

Trip Planner

Search our weather history database for the weather conditions in past years. The results will help you decide how hot, cold, wet, or windy it might be!

Date:

Astronomy

Jul. 04, 2013 Rise Set
Actual Time 5:58 AM EDT 9:34 PM EDT
Civil Twilight 5:20 AM EDT 10:12 PM EDT
Nautical Twilight 4:30 AM EDT 11:02 PM EDT
Astronomical Twilight 3:23 AM EDT 12:08 AM EDT
Moon 3:19 AM EDT (7/4) 6:34 PM EDT (7/4)
Length of Visible Light 16h 51m
Length of Day
15h 35m
Waning Crescent, 11% of the Moon is Illuminated
Jul 4
Waning Crescent
Jul 8
New
Jul 15
First Quarter
Jul 22
Full
Jul 29
Last Quarter

Hourly Weather History & Observations

Time (EDT) Temp. Dew Point Humidity Pressure Visibility Wind Dir Wind Speed Gust Speed Precip Events Conditions
12:15 AM 55.8 °F 50.9 °F 84% 30.05 in 10.0 mi Calm Calm - N/A   Clear
12:35 AM 56.1 °F 51.4 °F 84% 30.05 in 10.0 mi East 3.5 mph - N/A   Clear
12:55 AM 56.1 °F 51.4 °F 84% 30.04 in 10.0 mi Calm Calm - N/A   Clear
1:15 AM 56.3 °F 51.6 °F 84% 30.04 in 7.0 mi Calm Calm - N/A   Clear
1:35 AM 54.5 °F 51.3 °F 89% 30.04 in 10.0 mi SE 3.5 mph - N/A   Clear
1:55 AM 55.8 °F 51.8 °F 87% 30.03 in 10.0 mi Calm Calm - N/A   Mostly Cloudy
2:15 AM 60.4 °F 52.5 °F 75% 30.03 in 4.0 mi SE 5.8 mph - N/A   Haze
2:35 AM 61.7 °F 53.1 °F 73% 30.03 in 10.0 mi Calm Calm - N/A   Overcast
2:55 AM 60.8 °F 53.1 °F 76% 30.02 in 10.0 mi Calm Calm - N/A   Mostly Cloudy
3:15 AM 60.4 °F 53.6 °F 78% 30.02 in 10.0 mi SSE 4.6 mph - N/A   Mostly Cloudy
3:35 AM 61.3 °F 54.0 °F 77% 30.02 in 10.0 mi Calm Calm - N/A   Overcast
3:55 AM 61.2 °F 53.8 °F 77% 30.02 in 10.0 mi South 4.6 mph - N/A   Overcast
4:15 AM 61.0 °F 53.6 °F 77% 30.02 in 10.0 mi SSW 5.8 mph - N/A   Scattered Clouds
4:35 AM 60.3 °F 55.0 °F 83% 30.03 in 10.0 mi SW 9.2 mph - N/A   Clear
4:55 AM 59.4 °F 56.5 °F 90% 30.03 in 10.0 mi SW 8.1 mph - N/A   Mostly Cloudy
5:15 AM 59.7 °F 57.6 °F 93% 30.03 in 7.0 mi SW 8.1 mph - N/A   Overcast
5:35 AM 59.0 °F 57.4 °F 94% 30.03 in 7.0 mi SSW 11.5 mph 16.1 mph N/A   Overcast
5:55 AM 57.4 °F 56.5 °F 97% 30.03 in 5.0 mi SW 9.2 mph 16.1 mph N/A   Mostly Cloudy
6:15 AM 56.8 °F 56.1 °F 97% 30.04 in 5.0 mi SW 8.1 mph - N/A   Scattered Clouds
6:36 AM 57.0 °F 56.3 °F 97% 30.04 in 5.0 mi SW 6.9 mph - N/A   Mostly Cloudy
6:55 AM 57.4 °F 56.5 °F 97% 30.04 in 7.0 mi SSW 4.6 mph - N/A   Scattered Clouds
7:15 AM 58.5 °F 56.7 °F 94% 30.04 in 7.0 mi SSW 5.8 mph - N/A   Clear
7:35 AM 59.2 °F 56.7 °F 91% 30.05 in 10.0 mi SSW 10.4 mph - N/A   Mostly Cloudy
7:55 AM 58.3 °F 56.8 °F 95% 30.05 in 7.0 mi SSW 8.1 mph - N/A   Overcast
8:15 AM 58.1 °F 56.8 °F 96% 30.06 in 10.0 mi SSW 10.4 mph - N/A   Overcast
8:35 AM 58.1 °F 56.8 °F 96% 30.07 in 10.0 mi SSW 10.4 mph - N/A   Overcast
8:55 AM 57.7 °F 56.7 °F 96% 30.08 in 7.0 mi SSW 8.1 mph - N/A   Overcast
9:15 AM 58.3 °F 56.8 °F 95% 30.08 in 10.0 mi SSW 9.2 mph - N/A   Overcast
9:35 AM 58.3 °F 57.2 °F 96% 30.08 in 7.0 mi SW 5.8 mph - N/A   Overcast
9:55 AM 59.4 °F 57.2 °F 93% 30.08 in 7.0 mi SSW 8.1 mph - N/A   Overcast
10:15 AM 59.9 °F 57.6 °F 92% 30.08 in 10.0 mi SSW 8.1 mph - N/A   Overcast
10:35 AM 58.8 °F 57.0 °F 94% 30.08 in 10.0 mi SW 8.1 mph - N/A   Overcast
10:55 AM 58.5 °F 57.0 °F 95% 30.08 in 7.0 mi SSW 5.8 mph - N/A   Overcast
11:15 AM 58.3 °F 57.2 °F 96% 30.08 in 3.0 mi SSW 5.8 mph - N/A   Overcast
11:35 AM 60.6 °F 57.9 °F 91% 30.08 in 5.0 mi SW 8.1 mph - N/A   Overcast
11:55 AM 62.4 °F 58.1 °F 86% 30.07 in 7.0 mi South 8.1 mph - N/A   Overcast
12:15 PM 63.1 °F 58.1 °F 84% 30.07 in 7.0 mi SSW 10.4 mph - N/A   Overcast
12:35 PM 64.0 °F 58.3 °F 82% 30.06 in 7.0 mi SSW 9.2 mph - N/A   Overcast
12:55 PM 65.8 °F 58.3 °F 77% 30.06 in 7.0 mi SSW 8.1 mph - N/A   Scattered Clouds
1:15 PM 67.3 °F 58.3 °F 73% 30.06 in 10.0 mi SW 10.4 mph - N/A   Scattered Clouds
1:35 PM 67.5 °F 58.5 °F 73% 30.06 in 10.0 mi SSW 8.1 mph - N/A   Mostly Cloudy
1:55 PM 68.7 °F 58.5 °F 70% 30.06 in 7.0 mi South 9.2 mph - N/A   Mostly Cloudy
2:15 PM 70.3 °F 58.5 °F 66% 30.06 in 10.0 mi SSW 11.5 mph - N/A   Scattered Clouds
2:35 PM 70.0 °F 58.5 °F 67% 30.06 in 10.0 mi SW 11.5 mph - N/A   Scattered Clouds
2:55 PM 68.5 °F 59.2 °F 72% 30.06 in 7.0 mi SW 12.7 mph - N/A   Clear
3:15 PM 69.8 °F 59.2 °F 69% 30.06 in 10.0 mi SSW 11.5 mph 17.3 mph N/A   Scattered Clouds
3:35 PM 70.7 °F 59.4 °F 67% 30.06 in 10.0 mi SSW 11.5 mph 16.1 mph N/A   Scattered Clouds
3:55 PM 71.4 °F 59.0 °F 65% 30.06 in 10.0 mi SW 12.7 mph 17.3 mph N/A   Scattered Clouds
4:15 PM 69.8 °F 59.0 °F 68% 30.06 in 10.0 mi SSW 10.4 mph - N/A   Clear
4:35 PM 70.7 °F 58.6 °F 66% 30.05 in 10.0 mi SW 8.1 mph - N/A   Clear
4:55 PM 69.8 °F 58.8 °F 68% 30.05 in 10.0 mi SW 8.1 mph 17.3 mph N/A   Clear
5:15 PM 69.1 °F 58.5 °F 69% 30.05 in 10.0 mi SW 10.4 mph 17.3 mph N/A   Clear
5:35 PM 69.8 °F 58.1 °F 66% 30.05 in 10.0 mi SW 11.5 mph - N/A   Clear
5:55 PM 70.0 °F 58.1 °F 66% 30.05 in 10.0 mi SW 10.4 mph - N/A   Clear
6:15 PM 68.5 °F 57.7 °F 68% 30.05 in 10.0 mi SW 9.2 mph 17.3 mph N/A   Clear
6:35 PM 66.6 °F 57.4 °F 72% 30.05 in 10.0 mi SSW 10.4 mph 16.1 mph N/A   Clear
6:55 PM 65.1 °F 56.7 °F 74% 30.04 in 10.0 mi SW 11.5 mph 19.6 mph N/A   Clear
7:15 PM 64.9 °F 55.8 °F 72% 30.04 in 10.0 mi SSW 13.8 mph 19.6 mph N/A   Clear
7:35 PM 64.8 °F 55.8 °F 73% 30.04 in 10.0 mi SSW 8.1 mph - N/A   Clear
7:55 PM 65.1 °F 55.2 °F 70% 30.03 in 10.0 mi SSW 9.2 mph 19.6 mph N/A   Clear
8:15 PM 64.4 °F 54.7 °F 71% 30.04 in 10.0 mi SW 10.4 mph - N/A   Clear
8:35 PM 63.0 °F 54.7 °F 74% 30.03 in 10.0 mi SW 11.5 mph 18.4 mph N/A   Clear
8:55 PM 62.4 °F 54.5 °F 75% 30.03 in 10.0 mi SSW 9.2 mph - N/A   Clear
9:15 PM 61.7 °F 54.5 °F 77% 30.03 in 10.0 mi SW 10.4 mph 16.1 mph N/A   Clear
9:35 PM 61.2 °F 54.1 °F 78% 30.03 in 10.0 mi SW 11.5 mph 17.3 mph N/A   Clear
9:55 PM 61.7 °F 53.6 °F 75% 30.03 in 10.0 mi SW 10.4 mph 20.7 mph N/A   Clear
10:15 PM 61.0 °F 53.6 °F 77% 30.03 in 10.0 mi SW 9.2 mph 17.3 mph N/A   Clear
10:35 PM 61.2 °F 53.1 °F 75% 30.03 in 10.0 mi SSW 6.9 mph - N/A   Clear
10:55 PM 61.7 °F 52.7 °F 72% 30.04 in 10.0 mi SSW 9.2 mph - N/A   Clear
11:15 PM 61.3 °F 52.3 °F 72% 30.04 in 10.0 mi SSW 8.1 mph - N/A   Clear
11:35 PM 61.7 °F 51.8 °F 70% 30.04 in 10.0 mi SSW 8.1 mph - N/A   Clear
11:55 PM 62.2 °F 50.7 °F 66% 30.04 in 10.0 mi South 8.1 mph - N/A   Clear